Killington, USA 16 day weather forecast

Slopes altitude range 355 m - 1285m

Number of lifts: 20 Pistes: 135km

In some cases the lift and piste totals shown are for the ski domain (e.g. Three Valleys) rather than individual resort (e.g. Courchevel)

Overview

The 16 day weather forecast is fully updated 4 times every day.

    • Wed 26 JUN 2019
    • Wed 26
    • 14C 18C
    • Thu 27 JUN 2019
    • Thu 27
    • 14C 18C
    • Fri 28 JUN 2019
    • Fri 28
    • 13C 19C
    • Sat 29 JUN 2019
    • Sat 29
    • 14C 17C
    • Sun 30 JUN 2019
    • Sun 30
    • 14C 16C
    • Mon 01 JUL 2019
    • Mon 01
    • 9C 15C
    • Tue 02 JUL 2019
    • Tue 02
    • 15C 17C
    • Wed 03 JUL 2019
    • Wed 03
    • 15C 20C
    • Thu 04 JUL 2019
    • Thu 04
    • 18C 21C
    • Fri 05 JUL 2019
    • Fri 05
    • 19C 21C
    • Sat 06 JUL 2019
    • Sat 06
    • 17C 20C
    • Sun 07 JUL 2019
    • Sun 07
    • 12C 18C
    • Mon 08 JUL 2019
    • Mon 08
    • 12C 18C
    • Tue 09 JUL 2019
    • Tue 09
    • 16C 18C
    • Wed 10 JUL 2019
    • Wed 10
    • 8C 13C
    • Thu 11 JUL 2019
    • Thu 11
    • 10C 16C

Date:

Time Type 0°C level Temp Chill Snow Cloud Speed Gust Dir Press
3:00 4416m 17°C 17_2 0cm 36% 2mph 3mph 1013mB
6:00 4365m 15°C 15_1 0cm 26% 1mph 1mph 1015mB
9:00 4204m 14°C 14_1 0cm 0% 1mph 1mph 1016mB
12:00 4150m 18°C 18_2 0cm 3% 2mph 4mph 1017mB
15:00 3991m 25°C 25_3 0cm 16% 3mph 4mph 1017mB
18:00 3922m 26°C 26_6 0cm 8% 6mph 7mph 1016mB
21:00 3668m 26°C 26_6 0cm 0% 6mph 9mph 1015mB
0:00 3751m 20°C 20_4 0cm 2% 4mph 7mph 1017mB
3:00 3883m 16°C 16_4 0cm 0% 4mph 5mph 1018mB
6:00 3801m 15°C 15_4 0cm 0% 4mph 5mph 1019mB
9:00 4029m 15°C 15_3 0cm 0% 3mph 4mph 1019mB
12:00 4124m 18°C 18_3 0cm 3% 3mph 5mph 1020mB
15:00 4044m 23°C 23_8 0cm 2% 8mph 11mph 1020mB
18:00 4014m 26°C 26_7 0cm 2% 7mph 12mph 1019mB
21:00 4001m 26°C 26_7 0cm 33% 7mph 11mph 1017mB
0:00 3893m 20°C 20_3 0cm 50% 3mph 5mph 1019mB
3:00 3818m 15°C 15_2 0cm 25% 2mph 2mph 1020mB
6:00 3717m 14°C 14_2 0cm 26% 2mph 3mph 1020mB
9:00 3979m 13°C 13_3 0cm 6% 3mph 4mph 1020mB
12:00 3845m 19°C 19_2 0cm 50% 2mph 3mph 1021mB
15:00 3924m 25°C 25_4 0cm 86% 4mph 6mph 1020mB
18:00 4029m 27°C 27_7 0cm 60% 7mph 7mph 1019mB
21:00 3929m 26°C 26_7 0cm 95% 7mph 5mph 1018mB
0:00 3832m 16°C 16_4 0cm 97% 4mph 5mph 1019mB
3:00 3835m 15°C 15_3 0cm 100% 3mph 4mph 1018mB
6:00 4447m 14°C 14_2 0cm 100% 2mph 3mph 1016mB
9:00 4240m 14°C 14_3 0cm 36% 3mph 4mph 1015mB
12:00 4294m 17°C 17_1 0cm 43% 1mph 2mph 1015mB
15:00 4299m 19°C 19_2 0cm 97% 2mph 3mph 1013mB
18:00 4127m 25°C 25_8 0cm 62% 8mph 13mph 1012mB
21:00 3976m 24°C 24_7 0cm 11% 7mph 12mph 1010mB
0:00 3773m 19°C 19_2 0cm 14% 2mph 3mph 1011mB
3:00 3721m 16°C 16_3 0cm 2% 3mph 4mph 1011mB
6:00 3323m 15°C 15_3 0cm 16% 3mph 4mph 1010mB
9:00 3182m 14°C 14_2 0cm 70% 2mph 3mph 1009mB
12:00 3371m 16°C 16_4 0cm 56% 4mph 16mph 1009mB
15:00 2938m 18°C 18_8 0cm 50% 8mph 13mph 1009mB
18:00 2530m 19°C 19_13 0cm 26% 13mph 18mph 1008mB
21:00 2551m 16°C 16_13 0cm 51% 13mph 23mph 1009mB
0:00 3327m 14°C 14_8 0cm 39% 8mph 24mph 1010mB
3:00 3783m 10°C 10_3 0cm 1% 3mph 4mph 1010mB
6:00 3871m 10°C 10_3 0cm 0% 3mph 4mph 1010mB
9:00 3803m 9°C 9_2 0cm 2% 2mph 3mph 1012mB
12:00 3845m 15°C 15_7 0cm 4% 7mph 18mph 1013mB
15:00 3925m 21°C 21_8 0cm 42% 8mph 12mph 1013mB
18:00 4040m 24°C 24_10 0cm 36% 10mph 14mph 1012mB
21:00 3975m 23°C 23_8 0cm 91% 8mph 14mph 1012mB
0:00 4112m 18°C 18_1 0cm 95% 1mph 1mph 1012mB
3:00 4057m 15°C 15_2 0cm 100% 2mph 2mph 1012mB
6:00 3792m 14°C 14_2 0cm 100% 2mph 3mph 1011mB
9:00 3960m 15°C 15_2 0cm 100% 2mph 2mph 1011mB
12:00 4040m 17°C 17_1 0cm 92% 1mph 1mph 1011mB
15:00 4045m 17°C 17_1 0cm 100% 1mph 1mph 1009mB
18:00 3975m 24°C 24_6 0cm 73% 6mph 12mph 1008mB
21:00 3987m 24°C 24_4 0cm 8% 4mph 6mph 1007mB
0:00 4034m 20°C 20_2 0cm 20% 2mph 2mph 1009mB
3:00 4177m 16°C 16_1 0cm 0% 1mph 1mph 1010mB
6:00 4317m 15°C 15_1 0cm 0% 1mph 2mph 1009mB
9:00 4301m 15°C 15_1 0cm 0% 1mph 2mph 1010mB
12:00 4426m 20°C 20_2 0cm 0% 2mph 3mph 1011mB
15:00 4495m 26°C 26_6 0cm 22% 6mph 7mph 1011mB
18:00 4499m 28°C 28_4 0cm 61% 4mph 8mph 1010mB
21:00 4535m 27°C 27_5 0cm 100% 5mph 9mph 1009mB
0:00 4569m 22°C 22_3 0cm 100% 3mph 5mph 1010mB
3:00 4352m 20°C 20_7 0cm 37% 7mph 16mph 1010mB
6:00 4345m 19°C 19_5 0cm 36% 5mph 7mph 1010mB
9:00 4204m 18°C 18_6 0cm 100% 6mph 12mph 1010mB
12:00 4220m 21°C 21_7 0cm 100% 7mph 13mph 1010mB
15:00 4272m 23°C 23_9 0cm 89% 9mph 14mph 1010mB
18:00 4300m 25°C 25_5 0cm 86% 5mph 12mph 1009mB
21:00 4407m 22°C 22_4 0cm 94% 4mph 13mph 1008mB
0:00 4389m 21°C 21_6 0cm 91% 6mph 17mph 1008mB
3:00 4442m 20°C 20_5 0cm 100% 5mph 13mph 1008mB
6:00 4363m 20°C 20_6 0cm 100% 6mph 13mph 1008mB
9:00 4558m 19°C 19_5 0cm 92% 5mph 11mph 1008mB
12:00 4568m 21°C 21_5 0cm 82% 5mph 9mph 1009mB
15:00 4677m 25°C 25_7 0cm 17% 7mph 12mph 1009mB
18:00 4622m 28°C 28_5 0cm 24% 5mph 11mph 1007mB
21:00 4704m 26°C 26_3 0cm 14% 3mph 6mph 1007mB
0:00 4682m 22°C 22_2 0cm 10% 2mph 2mph 1009mB
Afternoon 0mm 0 4382m 20°C 20_3 0cm 12% 3mph 4mph 1012mB
Morning 0mm 0 4465m 18°C 18_5 0cm 0% 5mph 17mph 1013mB
Afternoon 0mm 0 4161m 18°C 18_3 0cm 41% 3mph 3mph 1016mB
Morning 0mm 0 4028m 20°C 20_1 0cm 62% 1mph 2mph 1012mB
Afternoon 0mm 0 4060m 18°C 18_3 0cm 0% 3mph 3mph 1014mB
Morning 0.0208333mm 0 4012m 19°C 19_0 0cm 2% 0mph 1mph 1010mB
Afternoon 1.45833mm 3.3125 4021m 18°C 18_7 0cm 96% 7mph 23mph 1006mB
Morning 0mm 0.0625 4055m 15°C 15_6 0cm 21% 6mph 21mph 1010mB
Afternoon 0mm 0 3451m 13°C 13_5 0cm 50% 5mph 12mph 1016mB
Morning 0mm 0 3368m 15°C 15_3 0cm 21% 3mph 6mph 1017mB
Afternoon 0mm 0 3753m 16°C 16_4 0cm 18% 4mph 5mph 1021mB
Morning 0mm 0.0625 3561m 19°C 19_3 0cm 73% 3mph 3mph 1019mB

16 day outlook at a glance

Forecast issued: 6/26/2019 8:36:33 AM

Chat

Your comments and questions. In a resort? Let us know what it's like!


Characters left 250

For terms and conditions see Readers Comments on the Cookie and privacy policy page.